Retour au catalogue

STARLINK-30106

ActifCommunicationsVLEO
NORAD 56288·PAYLOAD·🇺🇸 United States

Lancé Apr 19, 2023 depuis Cape Canaveral Space Force Station

Loading…

Prochains Passages (prochaines 24 heures)

TLE

FraisSource: CelesTrak SupGP

Époque: Sep 15, 2026, 02:34 UTC

1 56288C 23056C   26258.10743056 -.00007022  00000+0 -25436-3 0  2587
2 56288  43.0016 219.1742 0001211 267.9997 293.2177 15.27578601    19

Suivez STARLINK-30106 en temps réel avec AllMySat

Download on the App Store